[Date Prev][Date Next][Thread Prev][Thread Next] - [Date Index][Thread Index][Author Index]

2 Line ISS Keps 1-14



ISS
1 25544U 98067A   02014.15939373  .00061906  00000-0  83975-3 0  9567
2 25544  51.6402 107.0646 0006790 302.5598 133.9275 15.57028945180003


----
Via the sarex mailing list at AMSAT.ORG courtesy of AMSAT-NA.
To unsubscribe, send "unsubscribe sarex" to Majordomo@amsat.org



AMSAT Top AMSAT Home